Location: La Tine
(46.4708°N, 7.0525°E)
Time: 02:23:25
(UTC+00:00)

CSL-04 Rocket - Pass Details

Date: 18 September 2020
Orbit: 806 x 860 km, 98.9° (Epoch: 29 October)

Event Time Altitude Azimuth Distance (km) Brightness Sun altitude
Rises 18:25:26 0° 165° (SSE) 3,352 6.5 -9.1°
Reaches altitude 10° 18:27:46 10° 166° (SSE) 2,431 5.8 -9.5°
Maximum altitude 18:33:10 85° 255° (WSW) 849 3.8 -10.4°
Drops below altitude 10° 18:38:42 10° 344° (NNW) 2,483 6.6 -11.4°
Sets 18:41:06 0° 346° (NNW) 3,430 7.3 -11.8°
